EW2996 Weather Reports


time (UTC)temp
C
wind
direction
speed
KPH
gust
KPH
rain 1hr
cm
rain 24hr
cm
rain mn
cm
humidity
%
barometer
mb
20260504141022 13 186 9.7 25.7 0.00 0.00 0.00 45 1013.3
20260504140521 13 162 11.3 22.5 0.00 0.00 0.00 45 1013.2
20260504130505 11 132 6.4 17.7 0.00 0.00 0.00 53 1013.8
20260504110531 7 168 1.6 11.3 0.00 0.00 0.00 64 1014.2
20260504100521 6 142 1.6 6.4 0.00 0.00 0.00 67 1014.0
20260504082004 3 214 0.0 3.2 0.00 0.00 0.00 80 1013.3
20260504081504 3 214 1.6 3.2 0.00 0.00 0.00 81 1013.4
20260504081003 3 214 1.6 3.2 0.00 0.00 0.00 82 1013.4
20260504080503 3 214 1.6 3.2 0.00 0.00 0.00 83 1013.4
20260504050546 2 215 0.0 0.0 0.00 0.00 0.00 81 1013.4
20260504045547 2 215 0.0 0.0 0.00 0.00 0.00 80 1013.5
20260504045043 2 215 0.0 0.0 0.00 0.00 0.00 80 1013.5
20260504044549 2 215 0.0 0.0 0.00 0.00 0.00 79 1013.6
20260504044042 2 215 0.0 0.0 0.00 0.00 0.00 79 1013.7
20260504043543 2 215 0.0 0.0 0.00 0.00 0.00 77 1013.7
20260504043042 2 215 0.0 0.0 0.00 0.00 0.00 77 1013.6
20260504042541 2 215 0.0 1.6 0.00 0.00 0.00 77 1013.6
20260504042041 2 215 0.0 1.6 0.00 0.00 0.00 76 1013.5
20260504041540 2 215 0.0 1.6 0.00 0.00 0.00 75 1013.5
20260504041041 2 215 0.0 1.6 0.00 0.00 0.00 72 1013.5
20260504040538 2 215 0.0 0.0 0.00 0.00 0.00 71 1013.5
20260504040051 2 215 0.0 0.0 0.00 0.00 0.00 71 1013.5
20260504035538 2 215 0.0 0.0 0.00 0.00 0.00 72 1013.4
20260504035036 2 215 0.0 0.0 0.00 0.00 0.00 72 1013.4
20260504034548 2 215 0.0 1.6 0.00 0.00 0.00 71 1013.4
20260504034040 2 215 0.0 1.6 0.00 0.00 0.00 69 1013.4
20260504033539 2 215 0.0 1.6 0.00 0.00 0.00 68 1013.4
20260504033037 2 215 0.0 0.0 0.00 0.00 0.00 68 1013.4
20260504032536 2 215 0.0 0.0 0.00 0.00 0.00 67 1013.4
20260504032038 2 215 0.0 0.0 0.00 0.00 0.00 66 1013.3
20260504031536 2 215 0.0 0.0 0.00 0.00 0.00 67 1013.3
20260504031035 3 215 0.0 1.6 0.00 0.00 0.00 67 1013.2
20260504030535 3 215 0.0 1.6 0.00 0.00 0.00 67 1013.1
20260504030039 3 215 0.0 1.6 0.00 0.00 0.00 67 1013.1
20260504025536 3 215 0.0 1.6 0.00 0.00 0.00 67 1013.2
20260504025036 3 215 0.0 1.6 0.00 0.00 0.00 66 1013.2
20260504024535 3 215 0.0 1.6 0.00 0.00 0.00 66 1013.2
20260504024034 3 215 0.0 1.6 0.00 0.00 0.00 65 1013.3
20260504023535 3 215 0.0 1.6 0.00 0.00 0.00 62 1013.3
20260504023034 3 215 0.0 1.6 0.00 0.00 0.00 62 1013.3
20260504022534 3 215 0.0 1.6 0.00 0.00 0.00 60 1013.3
20260504022038 4 215 0.0 0.0 0.00 0.00 0.00 60 1013.3
20260504021533 4 215 0.0 0.0 0.00 0.00 0.00 60 1013.3
20260504021032 4 215 0.0 1.6 0.00 0.00 0.00 60 1013.2
20260504020533 4 215 0.0 1.6 0.00 0.00 0.00 59 1013.2
20260504020033 5 215 0.0 0.0 0.00 0.00 0.00 58 1013.2
20260504015533 5 215 0.0 0.0 0.00 0.00 0.00 57 1013.3
20260504015031 5 215 0.0 0.0 0.00 0.00 0.00 55 1013.2
20260504014530 5 215 0.0 0.0 0.00 0.00 0.00 55 1013.2
20260504014030 5 215 0.0 0.0 0.00 0.00 0.00 52 1013.1
20260504013530 6 215 0.0 0.0 0.00 0.00 0.00 52 1013.0
20260504013040 6 215 0.0 0.0 0.00 0.00 0.00 50 1012.9
20260504012532 6 215 0.0 0.0 0.00 0.00 0.00 49 1012.8
20260504012029 6 215 0.0 0.0 0.00 0.00 0.00 49 1012.8
20260504011528 6 215 0.0 0.0 0.00 0.00 0.00 50 1012.8
20260504011029 6 215 0.0 1.6 0.00 0.00 0.00 49 1012.7
20260504010528 6 215 0.0 1.6 0.00 0.00 0.00 48 1012.7
20260504010028 7 215 0.0 0.0 0.00 0.00 0.00 49 1012.6
20260504005528 7 215 0.0 0.0 0.00 0.00 0.00 48 1012.6
20260504005027 7 215 0.0 3.2 0.00 0.00 0.00 47 1012.5
20260504004528 7 215 0.0 3.2 0.00 0.00 0.00 48 1012.4
20260504004028 7 215 0.0 0.0 0.00 0.00 0.00 48 1012.4
20260504003527 7 215 0.0 0.0 0.00 0.00 0.00 49 1012.4
20260504003027 7 215 0.0 0.0 0.00 0.00 0.00 47 1012.3
20260504002527 7 215 0.0 0.0 0.00 0.00 0.00 47 1012.1
20260504002027 7 215 0.0 1.6 0.00 0.00 0.00 46 1012.0
20260504001527 7 215 0.0 1.6 0.00 0.00 0.00 45 1012.0
20260504001027 7 215 0.0 0.0 0.00 0.00 0.00 45 1011.9
20260504000526 8 215 0.0 1.6 0.00 0.00 0.00 44 1011.9
20260504000026 8 215 0.0 4.8 0.00 0.00 0.00 42 1011.8
20260503235526 8 215 0.0 4.8 0.00 0.00 0.00 42 1011.7
20260503235025 8 172 0.0 6.4 0.00 0.00 0.00 42 1011.6
20260503234527 8 217 0.0 6.4 0.00 0.00 0.00 41 1011.5
20260503234025 8 210 0.0 6.4 0.00 0.00 0.00 42 1011.5
20260503233526 8 13 0.0 4.8 0.00 0.00 0.00 42 1011.5
20260503233025 9 355 0.0 3.2 0.00 0.00 0.00 41 1011.4
20260503232525 9 355 0.0 4.8 0.00 0.00 0.00 41 1011.3
20260503232025 9 314 1.6 9.7 0.00 0.00 0.00 39 1011.4
20260503231525 10 238 1.6 16.1 0.00 0.00 0.00 38 1011.3
20260503231026 10 190 4.8 16.1 0.00 0.00 0.00 36 1011.3
20260503230527 10 238 3.2 12.9 0.00 0.00 0.00 36 1011.2
20260503230024 10 193 1.6 12.9 0.00 0.00 0.00 35 1011.2
20260503225523 10 171 4.8 12.9 0.00 0.00 0.00 36 1011.2
20260503225023 10 186 0.0 14.5 0.00 0.00 0.00 39 1011.2
20260503224523 10 182 3.2 14.5 0.00 0.00 0.00 36 1011.2
20260503224022 11 207 3.2 9.7 0.00 0.00 0.00 37 1011.2
20260503223522 10 174 0.0 11.3 0.00 0.00 0.00 39 1011.2
20260503223022 10 204 3.2 14.5 0.00 0.00 0.00 38 1011.2
20260503222521 10 192 6.4 22.5 0.00 0.00 0.00 37 1011.2
20260503222021 11 160 6.4 22.5 0.00 0.00 0.00 38 1011.1
20260503221521 11 178 3.2 11.3 0.00 0.00 0.00 40 1011.1
20260503221021 11 211 1.6 11.3 0.00 0.00 0.00 40 1011.1
20260503220521 10 237 1.6 19.3 0.00 0.00 0.00 40 1011.1
20260503220021 11 192 4.8 19.3 0.00 0.00 0.00 38 1011.1
20260503215520 11 180 4.8 19.3 0.00 0.00 0.00 39 1011.1
20260503215022 11 261 4.8 19.3 0.00 0.00 0.00 39 1011.1
20260503214518 10 311 4.8 14.5 0.00 0.00 0.00 39 1011.1
20260503214017 10 175 3.2 16.1 0.00 0.00 0.00 40 1011.1
20260503213516 10 167 6.4 20.9 0.00 0.00 0.00 41 1011.0
20260503213016 10 161 8.0 20.9 0.00 0.00 0.00 38 1011.0
20260503212516 10 203 6.4 17.7 0.00 0.00 0.00 41 1011.0
20260503212017 10 194 3.2 17.7 0.00 0.00 0.00 41 1011.0
20260503211513 10 205 6.4 17.7 0.00 0.00 0.00 41 1010.9
20260503211014 10 111 4.8 17.7 0.00 0.00 0.00 41 1010.9
20260503210512 10 192 6.4 17.7 0.00 0.00 0.00 41 1011.1
20260503210015 10 14 1.6 22.5 0.00 0.00 0.00 44 1010.9
20260503205513 10 59 4.8 22.5 0.00 0.00 0.00 43 1011.0
20260503205015 10 193 1.6 20.9 0.00 0.00 0.00 42 1011.1
20260503204511 10 184 4.8 17.7 0.00 0.00 0.00 43 1011.1
20260503204011 10 205 8.0 22.5 0.00 0.00 0.00 43 1010.9
20260503203511 9 202 8.0 20.9 0.00 0.00 0.00 43 1010.9
20260503203011 8 291 4.8 14.5 0.00 0.00 0.00 44 1010.8
20260503202511 8 131 3.2 14.5 0.00 0.00 0.00 43 1011.0
20260503202011 9 219 4.8 14.5 0.00 0.00 0.00 43 1011.0
20260503201510 9 200 6.4 19.3 0.00 0.00 0.00 43 1011.0
20260503201010 9 216 4.8 19.3 0.00 0.00 0.00 43 1011.1
20260503200510 9 268 3.2 16.1 0.00 0.00 0.00 43 1011.1
20260503200011 9 165 6.4 25.7 0.00 0.00 0.00 43 1011.2
20260503195510 9 211 8.0 25.7 0.00 0.00 0.00 41 1011.2
20260503195011 10 159 4.8 24.1 0.00 0.00 0.00 44 1011.1
20260503194507 9 119 4.8 17.7 0.00 0.00 0.00 45 1011.2
20260503194006 9 129 3.2 14.5 0.00 0.00 0.00 44 1011.2
20260503193505 8 143 4.8 17.7 0.00 0.00 0.00 46 1011.2
20260503193005 8 330 6.4 25.7 0.00 0.00 0.00 44 1011.2
20260503192504 8 177 3.2 29.0 0.00 0.00 0.00 45 1011.3
20260503192004 8 147 8.0 29.0 0.00 0.00 0.00 46 1011.3
20260503191504 8 207 4.8 30.6 0.00 0.00 0.00 45 1011.1
20260503191004 8 355 4.8 22.5 0.00 0.00 0.00 46 1011.3
20260503190504 8 337 6.4 20.9 0.00 0.00 0.00 44 1011.3
20260503190005 8 194 3.2 20.9 0.00 0.00 0.00 45 1011.2
20260503185504 8 180 4.8 14.5 0.00 0.00 0.00 45 1011.1
20260503185002 8 329 4.8 16.1 0.00 0.00 0.00 45 1011.2
20260503184507 8 149 4.8 17.7 0.00 0.00 0.00 45 1011.3
20260503184002 8 194 4.8 33.8 0.00 0.00 0.00 45 1011.4
20260503183503 8 243 4.8 17.7 0.00 0.00 0.00 46 1011.7
20260503183003 8 216 6.4 17.7 0.00 0.00 0.00 48 1011.4
20260503182502 8 304 4.8 19.3 0.00 0.00 0.00 48 1011.3
20260503182001 8 175 8.0 27.4 0.00 0.00 0.00 46 1011.4
20260503181503 8 217 9.7 27.4 0.00 0.00 0.00 45 1011.4
20260503181002 8 226 3.2 17.7 0.00 0.00 0.00 48 1011.2
20260503180501 8 202 8.0 22.5 0.00 0.00 0.00 49 1011.2
20260503180002 8 234 9.7 22.5 0.00 0.00 0.00 45 1011.2
20260503175502 8 248 4.8 25.7 0.00 0.00 0.00 45 1011.2
20260503175100 8 243 4.8 25.7 0.00 0.00 0.00 47 1011.1
20260503174600 8 160 4.8 19.3 0.00 0.00 0.00 44 1011.0
20260503174102 8 254 4.8 19.3 0.00 0.00 0.00 43 1011.1
20260503173601 8 118 6.4 17.7 0.00 0.00 0.00 45 1011.1
20260503173114 8 209 4.8 30.6 0.00 0.00 0.00 43 1011.0
20260503172558 8 212 11.3 30.6 0.00 0.00 0.00 46 1011.0
20260503172100 8 200 4.8 16.1 0.00 0.00 0.00 49 1011.1
20260503171555 8 302 4.8 22.5 0.00 0.00 0.00 45 1011.0
20260503171054 8 196 4.8 22.5 0.00 0.00 0.00 47 1010.9
20260503170554 8 331 9.7 22.5 0.00 0.00 0.00 45 1011.0
20260503150538 5 263 4.8 22.5 0.00 0.00 0.00 73 1011.9